Weather History for Covington, KY

Change the Weather History Date:

Tuesday, January 29, 2013

  Actual Average Record
Temperature  
Mean Temperature 59 °F 31 °F  
Max Temperature 64 °F 39 °F 68 °F (1914)
Min Temperature 53 °F 23 °F -11 °F (1977)
Degree Days  
Heating Degree Days 6 34  
Month to date heating degree days 907 986  
Since 1 July heating degree days 2773 2905  
Cooling Degree Days 0 0  
Month to date cooling degree days 0 0  
Year to date cooling degree days 0 0  
Growing Degree Days 7 (Base 50)    
Moisture  
Dew Point 53 °F    
Average Humidity 83    
Maximum Humidity 93    
Minimum Humidity 72    
Precipitation  
Precipitation 0.00 in 0.10 in 1.61 in (1939)
Month to date precipitation 2.54 2.80  
Year to date precipitation 2.54 2.80  
Snow  
Snow 0.00 in 0.30 in 3.80 in (2004)
Month to date snowfall 1.1 6.0  
Since 1 July snowfall 8.7 11.6  
Snow Depth 0.00 in    
Sea Level Pressure  
Sea Level Pressure 29.91 in    
Wind  
Wind Speed 15 mph (SSW)    
Max Wind Speed 29 mph    
Max Gust Speed 37 mph    
Visibility 9 miles    
Events      
T = Trace of Precipitation, MM = Missing Value Source: NWS Daily Summary

Daily Weather History Graph

Daily Weather History Graph

Search for Another Location

Airport:

Trip Planner

Search our weather history database for the weather conditions in past years. The results will help you decide how hot, cold, wet, or windy it might be!

Date:

Astronomy

Jan. 29, 2013 Rise Set
Actual Time 7:47 AM EST 5:56 PM EST
Civil Twilight 7:19 AM EST 6:25 PM EST
Nautical Twilight 6:47 AM EST 6:57 PM EST
Astronomical Twilight 6:15 AM EST 7:28 PM EST
Moon 8:50 PM EST (1/29) 8:45 AM EST (1/29)
Length of Visible Light 11h 05m
Length of Day
10h 09m
Waning Gibbous, 94% of the Moon is Illuminated
Jan 29
Waning Gibbous
Feb 3
Last Quarter
Feb 10
New
Feb 17
First Quarter
Feb 25
Full

Hourly Weather History & Observations

Time (EST) Temp. Dew Point Humidity Pressure Visibility Wind Dir Wind Speed Gust Speed Precip Events Conditions
12:52 AM 54.0 °F 51.1 °F 90% 30.05 in 7.0 mi SSW 9.2 mph - N/A   Mostly Cloudy
1:27 AM 53.6 °F 51.8 °F 94% 30.04 in 7.0 mi SSW 8.1 mph - N/A   Partly Cloudy
1:52 AM 53.1 °F 50.0 °F 89% 30.04 in 8.0 mi SSW 9.2 mph - N/A   Clear
2:52 AM 54.0 °F 51.1 °F 90% 30.03 in 8.0 mi SSW 10.4 mph - N/A   Mostly Cloudy
3:52 AM 54.0 °F 51.1 °F 90% 30.01 in 9.0 mi SSW 11.5 mph - N/A   Partly Cloudy
4:52 AM 54.0 °F 50.0 °F 86% 29.99 in 9.0 mi SSW 9.2 mph 18.4 mph N/A   Partly Cloudy
5:52 AM 55.0 °F 51.1 °F 86% 30.00 in 10.0 mi SW 9.2 mph - N/A   Overcast
6:52 AM 55.0 °F 51.1 °F 86% 30.01 in 9.0 mi SSW 11.5 mph - N/A   Overcast
7:02 AM 53.6 °F 51.8 °F 94% 30.01 in 9.0 mi SSW 12.7 mph 18.4 mph N/A   Overcast
7:37 AM 55.4 °F 51.8 °F 88% 30.00 in 9.0 mi SSW 12.7 mph 21.9 mph N/A   Overcast
7:52 AM 55.0 °F 51.1 °F 86% 29.99 in 8.0 mi SSW 12.7 mph 21.9 mph N/A   Overcast
8:02 AM 55.4 °F 51.8 °F 88% 30.00 in 8.0 mi South 12.7 mph 20.7 mph N/A   Overcast
8:44 AM 55.4 °F 51.8 °F 88% 29.99 in 8.0 mi SSW 13.8 mph 20.7 mph N/A   Mostly Cloudy
8:52 AM 55.9 °F 52.0 °F 87% 29.99 in 8.0 mi SSW 11.5 mph 19.6 mph N/A   Mostly Cloudy
9:29 AM 57.2 °F 51.8 °F 82% 29.99 in 9.0 mi SSW 13.8 mph - N/A   Overcast
9:52 AM 57.0 °F 53.1 °F 87% 29.99 in 9.0 mi SSW 11.5 mph 21.9 mph N/A   Overcast
10:23 AM 59.0 °F 53.6 °F 82% 29.98 in 9.0 mi SSW 15.0 mph 21.9 mph N/A   Scattered Clouds
10:52 AM 61.0 °F 54.0 °F 78% 29.96 in 10.0 mi SSW 16.1 mph 20.7 mph N/A   Mostly Cloudy
11:12 AM 60.8 °F 53.6 °F 77% 29.97 in 10.0 mi South 16.1 mph 25.3 mph N/A   Overcast
11:52 AM 61.0 °F 54.0 °F 78% 29.94 in 9.0 mi SSW 15.0 mph 23.0 mph N/A   Overcast
12:52 PM 62.1 °F 54.0 °F 75% 29.91 in 9.0 mi SSW 16.1 mph 26.5 mph N/A   Overcast
1:52 PM 62.1 °F 54.0 °F 75% 29.89 in 10.0 mi SSW 19.6 mph 28.8 mph N/A   Overcast
2:52 PM 63.0 °F 55.0 °F 75% 29.86 in 10.0 mi South 23.0 mph 28.8 mph N/A   Overcast
3:52 PM 63.0 °F 55.0 °F 75% 29.83 in 9.0 mi South 18.4 mph 25.3 mph N/A   Overcast
4:45 PM 62.6 °F 55.4 °F 77% 29.83 in 10.0 mi South 17.3 mph 23.0 mph N/A   Overcast
4:52 PM 63.0 °F 55.9 °F 78% 29.81 in 10.0 mi South 12.7 mph - N/A   Overcast
5:52 PM 62.1 °F 55.9 °F 80% 29.79 in 10.0 mi South 13.8 mph - N/A   Overcast
6:52 PM 62.1 °F 55.9 °F 80% 29.77 in 10.0 mi South 10.4 mph - N/A   Overcast
7:52 PM 63.0 °F 55.9 °F 78% 29.74 in 10.0 mi South 15.0 mph - N/A   Overcast
8:52 PM 62.1 °F 55.9 °F 80% 29.71 in 10.0 mi South 18.4 mph 26.5 mph N/A   Mostly Cloudy
9:52 PM 63.0 °F 57.0 °F 81% 29.69 in 10.0 mi South 19.6 mph 29.9 mph N/A   Scattered Clouds
10:52 PM 63.0 °F 57.0 °F 81% 29.63 in 10.0 mi South 18.4 mph 32.2 mph N/A   Scattered Clouds
11:52 PM 63.0 °F 57.0 °F 81% 29.59 in 10.0 mi South 26.5 mph 36.8 mph N/A   Scattered Clouds